{"data":{"norad_id":64219,"intl_designator":"2025-117S","name":"STARLINK-34323","alt_names":[],"object_type":"PAYLOAD","status":"ACTIVE","operator":null,"country":"US","launch_date":"2025-05-31","launch_site_code":"AFWTR","launch_vehicle":null,"mission":null,"orbit_class":"UNKNOWN","rcs_meters":null,"size_class":null,"mass_kg":null,"dimensions":null,"purposes":["comms"],"wikipedia_slug":null,"has_3d_model":false,"image_url":null,"decayed_at":null,"tle_current":{"epoch":"2026-09-20T12:26:10.891968Z","epoch_age_seconds":136127,"freshness":"FRESH","line1":"1 64219U 25117S   26263.51818162  .00029542  00000+0  88182-3 0  9990","line2":"2 64219  53.1592 213.3083 0000870 232.1587 127.9337 15.34407736 74409","mean_motion":15.34407736,"eccentricity":8.7e-5,"inclination_deg":53.1592,"raan_deg":213.3083,"arg_perigee_deg":232.1587,"mean_anomaly_deg":127.9337,"bstar":0.00088182,"rev_number":7440,"period_min":93.847284930529,"perigee_km":462.08509618091,"apogee_km":463.27539838193,"semimajor_km":6840.8172472814,"source":"CELESTRAK","updated_at":"2026-09-21T09:00:35.273389Z"}}}